Regional Weather Roundup
Issued by NWS Columbia, SC

Home | Current Version | Previous Version | Text Only | Print | Product List | Glossary On
Versions: 1 2 3 4 5 6 7 8 9 10 11 12 13 14 15 16 17 18 19 20 21 22 23 24 25 26 27 28 29 30 31 32 33 34 35 36 37 38 39 40 41 42 43 44 45 46 47 48 49 50
000
ASUS42 KCAE 281810
RWRCAE
REGIONAL WEATHER ROUNDUP
NATIONAL WEATHER SERVICE COLUMBIA SC
200 PM EDT FRI AUG 28 2015

NOTE: "FAIR" INDICATES FEW OR NO CLOUDS BELOW 12,000 FEET WITH NO
SIGNIFICANT WEATHER AND/OR OBSTRUCTIONS TO VISIBILITY.

NOT ALL STATIONS ARE QUALITY CONTROLLED BY THE NATIONAL
WEATHER SERVICE. USE DATA WITH CAUTION...ESPECIALLY
DEWPOINT OBSERVATIONS.

SCZ001>056-GAZ040-063>065-077-281900-
...UPSTATE SOUTH CAROLINA...

CITY           SKY/WX    TMP DP  RH WIND       PRES   REMARKS
ANDERSON       MOSUNNY   82  64  54 E9        30.18F
6HR MIN TEMP:  70; 6HR MAX TEMP:  82;

LIBERTY        CLEAR     82  64  54 SE9       30.19F
6HR MIN TEMP:  62; 6HR MAX TEMP:  89;

SPARTANBURG    SUNNY     84  55  37 E7        30.18F
CLEMSON        SUNNY     82  63  52 VRB7      30.20F
6HR MIN TEMP:  71; 6HR MAX TEMP:  82;

GREENVILLE     MOSUNNY   83  61  47 E10       30.20F
6HR MIN TEMP:  70; 6HR MAX TEMP:  83;

GREENWOOD      MOSUNNY   84  65  52 MISG      30.18F
6HR MIN TEMP:  69; 6HR MAX TEMP:  84;

GREER          SUNNY     83  60  45 VRB5      30.18F
6HR MIN TEMP:  68; 6HR MAX TEMP:  83;

ROCK HILL      SUNNY     83  56  39 E7        30.19F
6HR MIN TEMP:  66; 6HR MAX TEMP:  84;

CHESTER        CLEAR     88  52  29 E9        30.19F
LAURENS        CLEAR     82  68  61 E5        30.17F


...CENTRAL SOUTH CAROLINA...

CITY           SKY/WX    TMP DP  RH WIND       PRES   REMARKS
COLUMBIA APT   PTSUNNY   88  63  43 NE7       30.14F
6HR MIN TEMP:  72; 6HR MAX TEMP:  88;

COLUMBIA OWENS MOSUNNY   87  63  44 VRB7      30.16F
6HR MIN TEMP:  70; 6HR MAX TEMP:  87;

DARLINGTON     PTSUNNY   84  61  45 E12       30.18F
6HR MIN TEMP:  66; 6HR MAX TEMP:  84;

FLORENCE       PTSUNNY   85  58  39 E15       30.16F
6HR MIN TEMP:  69; 6HR MAX TEMP:  86;

MCENTIRE ANGB  PTSUNNY   83  65  54 NE12      30.16F
6HR MIN TEMP:  68; 6HR MAX TEMP:  84;

ORANGEBURG     PTSUNNY   86  67  52 E10       30.14S
6HR MIN TEMP:  69; 6HR MAX TEMP:  86;

SUMTER SHAW    PTSUNNY   86  65  48 E13       30.14F
6HR MIN TEMP:  69; 6HR MAX TEMP:  86;

NEWBERRY       MOCLDY    82  63  51 NE9       30.20F
AIKEN          MOCLDY    82  63  51 N10       30.18F
BARNWELL       FAIR      86  72  62 NE9       30.14F
MANNING        FAIR      82  64  54 N12       30.14S
CAMDEN         FAIR      84  57  39 N12       30.17F
LANCASTER      PTCLDY    84  55  37 E7G16     30.18F
WINNSBORO      PTCLDY    84  59  42 E9        30.17F


...EASTERN AND COASTAL SOUTH CAROLINA...

CITY           SKY/WX    TMP DP  RH WIND       PRES   REMARKS
MYRTLE BEACH   PTSUNNY   82  70  65 NE15      30.14F
N MYRTLE BCH   PTSUNNY   85  69  58 NE10      30.13S
6HR MIN TEMP:  70; 6HR MAX TEMP:  86;

CONWAY         FAIR      82  70  65 NE10      30.14S
MARION         FAIR      82  59  44 NE3       30.16S
HARTSVILLE     FAIR      86  55  35 NE9G16    30.17F
FLORENCE       PTSUNNY   85  58  39 E15       30.16F
6HR MIN TEMP:  69; 6HR MAX TEMP:  86;

DARLINGTON     PTSUNNY   84  61  45 E12       30.18F
6HR MIN TEMP:  66; 6HR MAX TEMP:  84;

CHARLESTON APT PTSUNNY   88  71  57 NE10      30.10F
6HR MIN TEMP:  71; 6HR MAX TEMP:  88;

MOUNT PLEASANT FAIR      84  73  70 NE5       30.10F
WALTERBORO     CLOUDY    88  70  55 NE10      30.12F
BEAUFORT       CLOUDY    85  72  65 N9        30.11F
6HR MIN TEMP:  73; 6HR MAX TEMP:  86;



...EASTERN GEORGIA...

CITY           SKY/WX    TMP DP  RH WIND       PRES   REMARKS
AUGUSTA BUSH F PTSUNNY   86  70  58 N9        30.13F
6HR MIN TEMP:  71; 6HR MAX TEMP:  86;

AUGUSTA DANIEL PTSUNNY   83  67  58 NE7       30.15F
6HR MIN TEMP:  71; 6HR MAX TEMP:  83;

THOMSON        PTSUNNY   82  73  73 NE6       30.20F
6HR MIN TEMP:  73; 6HR MAX TEMP:  85;

WASHINGTON     FAIR      84  73  70 E7        30.16F
SYLVANIA       CLOUDY    85  76  74 NE5       30.13F
6HR MIN TEMP:  73; 6HR MAX TEMP:  85;

STATESBORO     PTSUNNY   84  75  75 NE8       30.11F
6HR MIN TEMP:  72; 6HR MAX TEMP:  84;

SAVANNAH       CLOUDY    82  72  71 N9        30.11F
6HR MIN TEMP:  73; 6HR MAX TEMP:  82;



...SOUTHERN NORTH CAROLINA...

CITY           SKY/WX    TMP DP  RH WIND       PRES   REMARKS
CHARLOTTE      MOSUNNY   84  55  36 E7        30.19F
6HR MIN TEMP:  65; 6HR MAX TEMP:  85;

MONROE         SUNNY     82  58  43 NE8       30.18F
6HR MIN TEMP:  66; 6HR MAX TEMP:  83;

WADESBORO      CLEAR     85  52  32 NE3       30.17F
6HR MIN TEMP:  62; 6HR MAX TEMP:  85;

ROCKINGHAM     PTCLDY    83  58  42 NE7       30.17F
6HR MIN TEMP:  64; 6HR MAX TEMP:  83;

RUTHERFORDTON  MOSUNNY   84  56  38 S6        30.21F
6HR MIN TEMP:  65; 6HR MAX TEMP:  85;

ASHEVILLE      MOSUNNY   79  55  43 S8        30.24F
6HR MIN TEMP:  59; 6HR MAX TEMP:  79; 6HR PCP: TRACE;


$$


USA.gov is the U.S. government's official web portal to all federal, state and local government web resources and services.